User: anonymous   Login
Location: Nelson
(41.2830°S, 173.2830°E)
Time: 23:41:13
(UTC+13:00)
Language:

Cosmos 1818 - Orbit

View from above orbital plane
View from above orbital plane
View from above satellite
View from above satellite

Ground track
Ground track

The orbit data is extracted from the following two-line orbital elements,

1 17369U 87011A   19295.83093417 -.00000085 +00000-0 +58134-5 0  9994
2 17369 065.0114 211.6485 0016436 253.7931 106.1345 14.31449552761105
Epoch (UTC): 22 October 2019 19:56:32
Eccentricity: 0.0016436
inclination: 65.0114°
perigee height: 775 km
apogee height: 798 km
right ascension of ascending node: 211.6485°
argument of perigee: 253.7931°
revolutions per day: 14.31449552
mean anomaly at epoch: 106.1345°
orbit number at epoch: 76110

The dashed part of the orbit path shows where the satellite is in the earth's shadow,  

DLR